Content
SEND FEEDBACK

Daily
Averages
Monthly
Summary
United States of America

ANDERSONVILLE, TENNESSEE


Home > North America > United States > Tennessee
Elevation: 1066 feet     Latitude: 36 13N     Longitude: 084 03W

WEATHER
 
SELECT A DAY
Number of Records: 173,446;   Date Range: 9/1/98 - 7/20/14
 
SHARE

PRINT THIS DATA

[ ← Previous Day ]
WEATHER ALMANAC - FEBRUARY 13, 2013
[ Next Day → ]
[ °C ]   °F
Weather ElementAverageHighLow
Temperature43.1 °F46.9 °F (1:53 pm)39 °F (7:53 pm)
Dewpoint38.6 °F44.6 °F (1:15 pm)30.2 °F (5:50 pm)
Humidity84.4 %93 % (8:14 am)65 % (5:50 pm)
Barometer29.79 in30.03 in (11:53 pm)29.72 in (6:25 am)
Wind Speed3 mph11.5 mph (1:53 pm)
Wind Gust24.2 mph (1:38 pm)
Weather ElementAverage
Visibility6.4 mi
Wind DirectionE (87 °)

Weather ElementTotal
Precipitation0.41 in
Heating Degree Days22.1 (Base 65)
Averaged from 44 records on February 13, 2013
WEATHER CONDITIONS BREAKOUT
WIND DIRECTION BREAKOUT
WEATHER BY HOUR - FEBRUARY 13, 2013
[ °C ]   °F
Local TimeTemperatureDewpointHumidityBarometerVisibilityWind DirectionWind SpeedGust SpeedPrecipitationEventsConditions
1:53 AM44.1 °F39.0 °F82 %29.84 in10.0 miCalm0.00 inRainLight Rain
2:53 AM44.1 °F39.9 °F85 %29.81 in10.0 miCalm0.02 inRainLight Rain
3:53 AM43.0 °F39.9 °F89 %29.78 in6.0 miCalm0.06 inRainLight Rain
4:53 AM42.1 °F39.9 °F92 %29.76 in9.0 miCalm0.03 inRainLight Rain
5:11 AM42.8 °F39.2 °F87 %29.74 in10.0 miCalm0.00 inOvercast
5:30 AM42.8 °F39.2 °F87 %29.74 in4.0 miENE (60°)3.5 mph0.00 inRainLight Rain
5:53 AM42.1 °F39.0 °F89 %29.74 in3.0 miENE (70°)4.6 mph0.01 inRainLight Rain
6:25 AM42.8 °F39.2 °F87 %29.72 in2.5 miCalm0.01 inRainLight Rain
6:53 AM42.1 °F39.9 °F92 %29.73 in2.5 miCalm0.03 inRainLight Rain
7:01 AM42.8 °F39.2 °F87 %29.72 in4.0 miCalm0.01 inRainLight Rain
7:53 AM42.1 °F39.9 °F92 %29.73 in2.0 miCalm0.04 inRainLight Rain
7:58 AM42.8 °F39.2 °F87 %29.72 in1.8 miCalm0.00 inRainLight Rain
8:14 AM42.8 °F41.0 °F93 %29.72 in2.0 miCalm0.00 inRainLight Rain
8:53 AM43.0 °F39.9 °F89 %29.73 in2.0 miCalm0.01 inOvercast
9:00 AM42.8 °F39.2 °F87 %29.72 in1.8 miCalmOvercast
9:53 AM43.0 °F41.0 °F93 %29.75 in1.2 miCalm0.02 inRainLight Rain
10:20 AM44.6 °F41.0 °F87 %29.72 in1.8 miCalm0.01 inRainLight Rain
10:48 AM44.6 °F42.8 °F93 %29.72 in3.0 miVariable3.5 mph0.03 inRainLight Rain
10:53 AM44.1 °F42.1 °F93 %29.75 in6.0 miVariable5.8 mph0.03 inRainLight Rain
11:07 AM44.6 °F42.8 °F93 %29.72 in1.8 miWSW (240°)4.6 mph0.00 inOvercast
11:22 AM44.6 °F42.8 °F93 %29.72 in2.5 miSW (230°)4.6 mph0.01 inOvercast
11:30 AM44.6 °F42.8 °F93 %29.72 in4.0 miCalm0.01 inOvercast
11:53 AM45.0 °F42.1 °F90 %29.73 in5.0 miVariable6.9 mph0.01 inOvercast
12:15 PM44.6 °F42.8 °F93 %29.72 in1.8 miWest (260°)5.8 mph0.01 inRainLight Rain
12:24 PM44.6 °F42.8 °F93 %29.72 in3.0 miWSW (250°)6.9 mph0.01 inRainLight Rain
12:53 PM45.0 °F43.0 °F93 %29.74 in9.0 miSW (230°)6.9 mph0.02 inRainLight Rain
1:01 PM46.4 °F42.8 °F87 %29.72 in10.0 miSW (230°)8.1 mph0.00 inRainLight Rain
1:15 PM46.4 °F44.6 °F93 %29.72 in10.0 miSW (230°)8.1 mph0.00 inOvercast
1:31 PM46.4 °F42.8 °F87 %29.73 in4.0 miWest (280°)10.4 mph17.3 mph0.01 inRainLight Rain
1:38 PM46.4 °F42.8 °F87 %29.73 in10.0 miWest (270°)10.4 mph24.2 mph0.01 inRainLight Rain
1:53 PM46.9 °F41.0 °F80 %29.75 in10.0 miWest (270°)11.5 mph21.9 mph0.01 inRainLight Rain
2:53 PM46.0 °F37.9 °F73 %29.78 in10.0 miWest (260°)9.2 mph16.1 mph0.00 inMostly Cloudy
3:15 PM44.6 °F35.6 °F71 %29.79 in10.0 miVariable3.5 mphMostly Cloudy
3:53 PM42.1 °F33.1 °F70 %29.85 in10.0 miNNW (340°)9.2 mph17.3 mphOvercast
4:53 PM42.1 °F32.0 °F67 %29.89 in10.0 miCalmMostly Cloudy
5:50 PM41.0 °F30.2 °F65 %29.90 in10.0 miNorth (350°)3.5 mphOvercast
5:53 PM41.0 °F32.0 °F70 %29.93 in10.0 miCalmOvercast
6:53 PM41.0 °F32.0 °F70 %29.95 in10.0 miCalmOvercast
7:48 PM39.2 °F32.0 °F75 %29.95 in10.0 miCalmMostly Cloudy
7:53 PM39.0 °F32.0 °F76 %29.98 in10.0 miCalmMostly Cloudy
8:53 PM39.0 °F32.0 °F76 %29.99 in10.0 miCalmOvercast
9:53 PM39.0 °F32.0 °F76 %30.00 in10.0 miWest (260°)3.5 mphOvercast
10:53 PM39.0 °F32.0 °F76 %30.01 in10.0 miCalmOvercast
11:53 PM39.0 °F32.0 °F76 %30.03 in10.0 miCalmOvercast
Hourly data recorded from KOQT, located miles away from Andersonville, Tennessee







STORIES FROM OUR PARTNERS